Погода в Вилласимиусе

Италия     39°08′36″N   9°31′10″E
темп.,
°C
ветер,
м/с
пор.,
м/с
влажн.,
%
обл.,
%
осадки,
мм/ч
давл.,
гПа
погр.,
м
10 мая, пн
пн1023:00+14св227688 0.0 101732
02:00+14ссв33780 0.0 101644
05:00+13св33940 0.0 101549
08:00+16всв23820 0.0 1015176
11:00+22вюв355452 0.0 1015648
14:00+24юв474527 0.0 1014808
17:00+22вюв3550100 0.0 1013630
20:00+17в2274100 0.0 101343
11 мая, вт
вт1123:00+16вюв118593 0.1 101423
02:00+15ююз11935 0.6 101316
05:00+14ю11959 0.0 101220
08:00+17з128433 0.0 1013211
11:00+22з4849100 0.3 10131400
14:00+18зюз81270100 2.1 10141283
17:00+21зюз710471 0.1 10131844
20:00+16з610570 0.1 10141036
12 мая, ср
ср1223:00+11зсз278715 0.0 1016327
02:00+13зсз6127223 0.1 10151148
05:00+11з388295 0.0 1015730
08:00+14з4107012 0.1 10161102
11:00+19зсз710432 0.0 10151681
14:00+21з610341 0.0 10141909
17:00+21з710344 0.0 10141865
20:00+17зюз59562 0.0 1014821
13 мая, чт
чт1323:00+12зюз37939 0.0 1014254
02:00+12з269610 0.0 1013272
05:00+11з229573 0.0 101243
08:00+15зюз267534 0.0 1012376
11:00+20з59462 0.0 10121549
14:00+23з610368 0.0 10112335
17:00+21з58342 0.0 10111784
20:00+15зсз235188 0.0 101291
14 мая, пт
пт1423:00+11зсз22687 0.0 101340
02:00+10зсз22691 0.0 101225
05:00+10з22690 0.0 101129
08:00+15юз235490 0.0 1012228
11:00+20ююз474534 0.0 1012978
14:00+21ююз694740 0.0 10111203
17:00+21юз5949100 0.0 1010938
20:00+17юз34735 0.0 1010137